STARLINK-36789, 68118

Orbit data source: Space-Track

STARLINK-36789, 68118 is a payload satellite owned by SpaceX/Seattle (US) in SSO that was launched on Sun, 08 Mar 2026 UTC via an FALCON 9 launch vehicle from the Air Force Western Test Range (AFWTR). Payload-class satellites include a variety of spacecraft equipped with specific instruments for various scientific and technological missions. These include communications satellites like Starlink; space stations such as the ISS; scientific satellites like the Hubble; Earth observation satellites from companies like Planet Labs, Umbra, and HawkEye 360; GPS; miniature CubeSats for education and research; and military/defense satellites.

Loading next visibility...
Identifier
68118, 2026-044T
Orbit
SSO
Country
Flag of USUS
Related business
Manufacturer
SpaceX/Seattle
Mission
Operational spacecraft
Bus & Motor
STARLINK V2MO, Unknown motor
Mass
575 kg wet, ~530 kg dry
Launch date (UTC)
2026-03-08 (2 months ago)
Launch vehicle
FALCON 9
Launch site
Air Force Western Test Range (AFWTR)
Object type
Payload
Rocket body
Debris
Shape & HBR
Unknown shape, 17.7 m
Radar Cross Section
RCS unknown

Expand to show TLE details & history
Last TLE update: 11 hours ago

TLE from 11 hours ago
0 STARLINK-36789
1 68118U 26044T   26119.44246034  .00042784  00000-0  13189-2 0  9995
2 68118  97.2859  80.4707 0002122  95.2645 264.8840 15.33473012  9369
Epoch: 2026-04-29T10:37Z
TLE epoch observation values (Epoch: 2026-04-29T10:37:08.573Z)
Latitude
-0.00001°
Longitude
63.78162°
Altitude
468.702 km
Speed
7.632 km/s
True Right ascension
05h 21m 52s
True Declination
0° 00' 00"
Sunlit
Object was in daylight at epoch
Visualization orbit readout
Latitude
Unknown
Longitude
Unknown
Altitude
Unknown
Speed
Unknown
Apparent Right ascension
Unknown
Apparent Declination
Unknown
Sunlit
N/A
Visualization observer readout
Local Sidereal Time
04:41:57
Azimuth
Unknown
Elevation
Unknown
Doppler factor
Unknown
Orbital elements
Apogee altitude
463.854 km
Perigee altitude
460.951 km
Semi-major axis
6,840.54 km
Eccentricity
0.00021
Inclination
97.2859°
RAAN
80.4707°
Arg. of periapsis
95.2645°
True anomaly
264.85978°
Mean anomaly
264.884°
Eccentric anomaly
264.87189°
Mean motion
3.83626 °/min
Orbital period
93.84 mins
BSTAR
0.0013189
Loading maneuver chart data...
Computing Atmospheric mass density...
Loading historical data...
Loading historical data...
Loading historical data...
Loading historical data...
Loading historical data...
Loading historical data...
Loading historical data...

Documentation

Showing up to 5 results
|